Regional Weather Roundup
Issued by NWS

Home | Current Version | Previous Version | Graphics & Text | Print | Product List | Glossary On
Versions: 1 2 3 4 5 6 7 8 9 10 11 12 13 14 15 16 17 18 19 20 21 22 23 24 25 26 27 28 29 30 31 32 33 34 35 36 37 38 39 40 41 42 43 44 45 46 47 48 49 50
296
ASUS43 KLOT 262308
RWRIL

ILLINOIS REGIONAL WEATHER ROUNDUP
NATIONAL WEATHER SERVICE CHICAGO/ROMEOVILLE IL
600 PM CDT THU APR 26 2018

NOTE: "FAIR" INDICATES FEW OR NO CLOUDS BELOW 12,000 FEET WITH NO
SIGNIFICANT WEATHER AND/OR OBSTRUCTIONS TO VISIBILITY.

* THESE STATIONS ARE NOT UNDER NWS QUALITY CONTROL. THEY ALSO MAY NOT
  REPORT WEATHER SUCH AS PRECIPITATION OR FOG.

ILZ001-002-007-009-015-016-024-270000-
NORTHWEST ILLINOIS

CITY           SKY/WX    TMP DP  RH WIND       PRES   REMARKS
MOLINE         FAIR      71  28  20 W10       29.83F
STERLING*      FAIR      69  29  22 W12       29.84F
SAVANNA*       FAIR      70  28  21 W9        29.83F
$$

ILZ003-004-008-010-011-017-018-270000-
NORTH CENTRAL ILLINOIS

CITY           SKY/WX    TMP DP  RH WIND       PRES   REMARKS
ROCKFORD       CLOUDY    66  28  24 W10       29.84F
FREEPORT*      FAIR      67  28  22 W8G17     29.84F
ROCHELLE*      FAIR      67  31  26 W10       29.85S
DE KALB*       FAIR      66  30  25 W9        29.85S
PERU*          FAIR      69  34  27 SW9       29.85S
$$

ILZ005-006-012>014-019>023-270000-
NORTHEAST ILLINOIS

CITY           SKY/WX    TMP DP  RH WIND       PRES   REMARKS
CHICAGO-OHARE  CLOUDY    65  27  23 SW9       29.83F
CHICAGO-MIDWAY CLOUDY    62  26  25 E9        29.84F
AURORA         FAIR      66  30  26 MISG      29.84F
LANSING*       FAIR      62  35  36 E6        29.85F
JOLIET*        FAIR      67  31  26 CALM      29.85F
WAUKEGAN       FAIR      54  27  35 SE8       29.84F
DUPAGE AIRPORT FAIR      65  31  28 SW8       29.83F
KANKAKEE*      FAIR      64  31  28 NW10      29.87S
WHEELING       FAIR      66  29  24 SW6       29.85F
MORRIS*        FAIR      66  29  25 W7        29.84S
ROMEOVILLE*    FAIR      65  32  29 W8        29.85F
NORTHERLY ISL    N/A     49  34  56 SE3         N/A
$$

LMZ740>746-270000-
SOUTHERN LAKE MICHIGAN

STATION/POSITION SKY/WX   TEMP    WIND        PRES    VSBY  WAVE
                          AIR SEA DIR/SP/G                  HT/PER
                          (F)     (DEG/KT/KT) (MB)    (MI)  (FT/S)
HARRISON CRIB              48     140/ 11/ 12   N/A
BURNHAM HARBOR             49     140/  3/  5   N/A
CALUMET HARBOR             50     100/  6/ 11 1010.8F
BURNS HARBOR               52      70/  8/  9 1011.9F
MICHIGAN CITY              53      50/  8/  8   N/A
ST. JOSEPH                 46 45  180/  2/  2 1012.1          1
$$

ILZ025>027-034>036-040-047-049-050-058-095>099-270000-
WEST-CENTRAL ILLINOIS

CITY           SKY/WX    TMP DP  RH WIND       PRES   REMARKS
QUINCY         PTSUNNY   68  33  27 W7        29.88S
GALESBURG*     FAIR      72  33  24 W12       29.86F
MACOMB*        CLOUDY    68  31  25 W7        29.88F
JACKSONVILLE*  CLOUDY    69  30  23 W12       29.87F
PITTSFIELD*    SUNNY     69  33  25 W8        29.89S
$$

ILZ028>032-037-038-041>044-048-051>054-059>061-270000-
CENTRAL ILLINOIS

CITY           SKY/WX    TMP DP  RH WIND       PRES   REMARKS
PONTIAC        FAIR      67  28  23 W7        29.87S
BLOOMINGTON    FAIR      65  32  29 W8        29.88F
DECATUR        FAIR      66  34  30 N7        29.87F
PEORIA         FAIR      68  33  27 W5        29.86F
LACON*         FAIR      67  32  26 S3        29.84F
LINCOLN*       FAIR      67  35  29 W3        29.88S
SPRINGFIELD    FAIR      71  33  24 NW8       29.88S
TAYLORVILLE    FAIR      68  31  25 N8        29.88S
$$

ILZ033-039-045-046-055>057-062-063-270000-
EAST-CENTRAL ILLINOIS

CITY           SKY/WX    TMP DP  RH WIND       PRES   REMARKS
CHAMPAIGN      FAIR      66  31  27 NW9       29.87F
DANVILLE*      FAIR      65  29  26 NW6       29.85S
RANTOUL*       FAIR      67  32  26 N9        29.87S
MATTOON        FAIR      66  34  30 NW12      29.86S
PARIS*         FAIR      65  28  24 N7        29.88R
$$

ILZ079-100>102-270000-
SOUTHWEST ILLINOIS

CITY           SKY/WX    TMP DP  RH WIND       PRES   REMARKS
ALTON          MOSUNNY   70  41  35 NW10      29.89R
BELLEVILLE     MOSUNNY   70  41  35 W7        29.87S
CAHOKIA*       SUNNY     69  39  33 NW12G17   29.88S
SPARTA*        MOSUNNY   65  46  49 CALM      29.91S
$$

ILZ064>066-069>071-074>076-080>082-084>086-088>090-092>094-270000-
SOUTH-CENTRAL ILLINOIS

CITY           SKY/WX    TMP DP  RH WIND       PRES   REMARKS
CARBONDALE     FAIR      65  44  46 N9        29.89S
CAIRO*         FAIR      65  43  44 N6        29.89S
EFFINGHAM*     FAIR      66  39  36 NW10      29.90S
MARION         MOSUNNY   64  39  39 NW9       29.90R
MT. VERNON     FAIR      67  38  34 VRB6      29.88S
CENTRALIA*     SUNNY     67  42  40 NW6       29.88S
SALEM*         FAIR      68  35  29 NW5       29.89S
METROPOLIS*    FAIR      66  45  46 N3        29.89S
$$

ILZ067-068-072-073-078-083-087-091-270000-
SOUTHEAST ILLINOIS

CITY           SKY/WX    TMP DP  RH WIND       PRES   REMARKS
LAWRENCEVILLE  FAIR      68  29  23 MISG      29.88R
FLORA*         FAIR      67  36  31 N5        29.89R
FAIRFIELD*     FAIR      66  35  32 NW5       29.87S
HARRISBURG*    FAIR      67  43  42 NW6       29.89R
ROBINSON*      FAIR      65  31  27 NW10      29.88S
CARMI*         FAIR      67  39  35 N10       29.87S
$$

ABBREVIATIONS USED IN REMARKS
   TC - TEMPERATURE IN CELSIUS
  WCI - WIND CHILL INDEX
   HX - HEAT INDEX
  VSB - VISIBILITY
$$





USA.gov is the U.S. government's official web portal to all federal, state and local government web resources and services.